[[{"header":{"parameterUnit":"m.s-1","parameterCategory":1,"la1":30.2991,"la2":30.254,"lo1":-89.0895,"lo2":-89.0444,"dy":0.0017,"dx":0.0017,"nx":28,"ny":28,"refTime":"2025-02-08T09:00:00:Z","depth":0,"parameterNumber":2,"parameterNumberName":"U-component_of_WINDS"},"data":[0,0,0,0,0,0,0,0,0,0,0,0,0,0,0,0,0,0,0,0,0,0,0,0,0,0,0,0,0,0,0,0,0,0,0,0,0,0,0,0,0,0,0,0,0,0,0,0,0,0,0,0,0,0,0,0,0,0,0.3639,0.364,0,0.3731,0.3733,0.3734,0.3833,0.3835,0.3836,0.3838,0.3935,0.3936,0.3937,0,0,0,0,0,0,0,0,0,0,0,0,0,0.3553,0.3554,0.3639,0.364,0.3641,0.3731,0.3733,0.3734,0.3833,0.3835,0.3837,0.3838,0.3934,0.3936,0.3937,0,0,0,0,0,0,0,0,0,0,0,0,0,0.3612,0.3554,0.3639,0.3702,0.3708,0.3731,0.3733,0.3734,0.3833,0.3835,0.3837,0.3839,0.3934,0.3936,0.3938,0.3907,0,0,0.3943,0.3944,0,0,0,0,0,0,0,0,0.3608,0.3615,0.3691,0.3697,0.3705,0.3773,0.3738,0.3792,0.3832,0.3786,0.3838,0.384,0.3879,0.3886,0.3899,0.3911,0.3915,0.3944,0.3945,0.3946,0.3946,0,0,0,0,0,0,0,0.3604,0.3612,0.3676,0.3692,0.3701,0.3727,0.3737,0.3749,0.382,0.379,0.3797,0.3807,0.3884,0.3897,0.3902,0.3917,0.3944,0.3945,0.3946,0.3947,0.3911,0.3909,0,0,0,0,0,0,0.359,0.3608,0.3673,0.3679,0.3661,0.3726,0.3738,0.3749,0.382,0.3832,0.3805,0.3811,0.3892,0.3899,0.3906,0.3875,0.3946,0.3947,0.3948,0.3913,0.3911,0.3909,0,0,0,0,0,0,0.3588,0.3595,0.3669,0.3645,0.3657,0.3726,0.3737,0.375,0.3763,0.3831,0.3844,0.3805,0.3894,0.3903,0.3906,0.388,0.3948,0.395,0.3916,0.3913,0.391,0.3813,0,0,0,0,0,0,0.3585,0.3594,0.3581,0.3644,0.3657,0.3666,0.3735,0.375,0.3766,0.3775,0.3835,0.3847,0.3897,0.3903,0.3908,0.3884,0.3951,0.3918,0.3914,0.3911,0.3819,0.3807,0.3797,0,0,0,0,0,0.3582,0.3551,0.358,0.3588,0.3643,0.3665,0.3672,0.373,0.3763,0.3752,0.3796,0.3845,0.3882,0.3902,0.3909,0.3885,0.392,0.3916,0.3911,0.3824,0.3809,0.3797,0,0,0,0,0,0,0.3483,0.356,0.3594,0.3582,0.3616,0.3681,0.3669,0.3712,0.3738,0.3746,0.3817,0.383,0.3825,0.3856,0.3877,0.386,0.3908,0.3905,0.384,0.3826,0.3816,0.3808,0.3953,0,0,0,0,0,0.346,0.347,0.3537,0.352,0.3536,0.3599,0.361,0.3652,0.369,0.3706,0.375,0.3786,0.3807,0.3818,0.3841,0.3824,0.384,0.3811,0.38,0.3791,0.3787,0.3782,0.3771,0.3893,0.3893,0.3893,0,0,0.3413,0.3456,0.3458,0.3502,0.3533,0.3543,0.3611,0.3618,0.3626,0.3707,0.3713,0.3746,0.3792,0.3786,0.3785,0.3811,0.3757,0.3785,0.3777,0.3778,0.3776,0.3765,0.3754,0.389,0.389,0.3891,0,0,0.3331,0.3364,0.3355,0.3385,0.3431,0.3474,0.3472,0.3531,0.3557,0.3563,0.3625,0.3637,0.367,0.37,0.372,0.3652,0.3698,0.3657,0.3599,0.3594,0.3584,0.3576,0.3553,0.3544,0.3653,0.3653,0.3653,0,0.3267,0.3282,0.3344,0.3348,0.3366,0.344,0.3431,0.3458,0.3509,0.3521,0.3549,0.3593,0.3629,0.3632,0.3615,0.3628,0.3629,0.365,0.3581,0.3573,0.3566,0.3545,0.3536,0.3648,0.3648,0.3649,0.3649,0,0.3201,0.3212,0.3198,0.3246,0.3263,0.326,0.3323,0.3333,0.3374,0.3414,0.3421,0.3467,0.35,0.3504,0.3544,0.3513,0.3528,0.3567,0.3617,0.3548,0.353,0.3522,0.364,0.3642,0.3644,0.3645,0,0,0.3059,0.3142,0.3136,0.3159,0.3217,0.3227,0.3228,0.3261,0.3268,0.3302,0.3306,0.3334,0.3371,0.3393,0.3438,0.3433,0.3378,0.3474,0.3476,0.3455,0.3348,0.3318,0.3307,0.3409,0.3408,0.3407,0.3344,0,0.2988,0.2994,0.3051,0.3041,0.3053,0.3124,0.3126,0.3162,0.3201,0.3217,0.326,0.3279,0.3326,0.334,0.3339,0.3384,0.3357,0.339,0.3415,0.3415,0.3401,0.3297,0.3265,0.3204,0.3337,0.3336,0.3335,0,0.2905,0.2933,0.2925,0.2984,0.2991,0.2991,0.3027,0.3041,0.3085,0.3113,0.3139,0.3189,0.3197,0.3244,0.3257,0.3278,0.3292,0.3316,0.3315,0.332,0.3371,0.3299,0.3186,0.3177,0.3324,0.3325,0.3326,0,0.2803,0.2839,0.2839,0.2857,0.2926,0.2925,0.2954,0.2999,0.3016,0.3047,0.3059,0.3091,0.3108,0.3133,0.3191,0.322,0.3198,0.325,0.3223,0.3222,0.3215,0.3214,0.3102,0.3223,0.3223,0.3223,0.3224,0,0.2717,0.2709,0.2794,0.2794,0.2788,0.2855,0.2847,0.2884,0.2924,0.2934,0.2998,0.3006,0.3082,0.3099,0.3145,0.315,0.3157,0.3182,0.3194,0.3176,0.3173,0.3186,0.3192,0.3221,0.3222,0.3222,0.3223,0,0.2601,0.2658,0.2663,0.2728,0.2744,0.2737,0.2794,0.2798,0.2841,0.2852,0.2859,0.2926,0.295,0.3011,0.3051,0.3082,0.3074,0.3097,0.3059,0.3067,0.3037,0.3039,0.2929,0.2919,0.3045,0.3044,0.3043,0,0.2543,0.2538,0.2603,0.2614,0.264,0.2656,0.2674,0.274,0.2755,0.2806,0.2804,0.2833,0.2859,0.2894,0.2948,0.2979,0.3004,0.2963,0.3009,0.2991,0.3004,0.3003,0.3004,0.2953,0.2951,0.295,0.2948,0,0.2433,0.2462,0.2483,0.2515,0.2534,0.2562,0.2595,0.26,0.2675,0.2689,0.2714,0.2734,0.2776,0.2804,0.2844,0.2876,0.2925,0.2934,0.293,0.2911,0.2889,0.2902,0.3032,0.2936,0.2937,0.2938,0.2939,0.2939,0.2345,0.2345,0.2391,0.2414,0.2445,0.2474,0.2481,0.2525,0.2547,0.2584,0.2623,0.2644,0.2691,0.2749,0.2778,0.2797,0.2822,0.2815,0.2814,0.2811,0.2804,0.2886,0.2804,0.2805,0.2805,0.2806,0.2806,0,0.2239,0.2273,0.2293,0.2336,0.2354,0.2398,0.2437,0.245,0.2467,0.2506,0.2531,0.2561,0.2589,0.2645,0.2679,0.2684,0.2707,0.2691,0.2691,0.2698,0.2779,0.2779,0.2671,0.2671,0.2671,0.2671,0.2671,0.2671,0.2186,0.2189,0.2223,0.2243,0.2278,0.2298,0.2317,0.2345,0.2376,0.2406,0.243,0.2466,0.2513,0.2551,0.258,0.2596,0.2606,0.2582,0.2605,0.2679,0.2692,0.2704,0.2705,0.2583,0.2583,0.2524,0.2523,0.2523]},{"header":{"parameterUnit":"m.s-1","parameterCategory":1,"la1":30.2991,"la2":30.254,"lo1":-89.0895,"lo2":-89.0444,"dy":0.0017,"dx":0.0017,"nx":28,"ny":28,"refTime":"2025-02-08T09:00:00:Z","depth":0,"parameterNumber":3,"parameterNumberName":"V-component_of_WINDS"},"data":[0,0,0,0,0,0,0,0,0,0,0,0,0,0,0,0,0,0,0,0,0,0,0,0,0,0,0,0,0,0,0,0,0,0,0,0,0,0,0,0,0,0,0,0,0,0,0,0,0,0,0,0,0,0,0,0,0,0,0.4106,0.4106,0,0.4083,0.4083,0.4082,0.4098,0.4099,0.41,0.41,0.4077,0.4075,0.4074,0,0,0,0,0,0,0,0,0,0,0,0,0,0.4164,0.4163,0.4106,0.4106,0.4105,0.4083,0.4083,0.4082,0.4098,0.4099,0.41,0.4101,0.4077,0.4076,0.4074,0,0,0,0,0,0,0,0,0,0,0,0,0,0.414,0.4163,0.4106,0.4111,0.4111,0.4083,0.4083,0.4082,0.4098,0.4099,0.41,0.4101,0.4078,0.4076,0.4074,0.404,0,0,0.4068,0.4067,0,0,0,0,0,0,0,0,0.4141,0.4138,0.411,0.411,0.411,0.4094,0.4095,0.4068,0.4098,0.4103,0.41,0.4102,0.4082,0.408,0.4073,0.4039,0.4038,0.4068,0.4067,0.4066,0.4065,0,0,0,0,0,0,0,0.4143,0.4139,0.4097,0.411,0.411,0.4114,0.4112,0.409,0.4087,0.4102,0.4103,0.4101,0.4082,0.4075,0.4072,0.4038,0.4068,0.4066,0.4065,0.4064,0.3976,0.3975,0,0,0,0,0,0,0.4144,0.414,0.4098,0.4096,0.4129,0.4112,0.4109,0.4098,0.4087,0.4086,0.41,0.4101,0.4077,0.4075,0.4072,0.4032,0.4066,0.4064,0.4063,0.3977,0.3976,0.3975,0,0,0,0,0,0,0.4145,0.414,0.4099,0.4118,0.4113,0.411,0.4097,0.4097,0.409,0.4085,0.4084,0.4093,0.4078,0.4074,0.4048,0.4031,0.4063,0.4061,0.3979,0.3977,0.3975,0.3952,0,0,0,0,0,0,0.4147,0.4141,0.4128,0.4118,0.4112,0.4075,0.4096,0.4096,0.4087,0.4089,0.4078,0.4077,0.4079,0.4051,0.4046,0.4029,0.406,0.398,0.3978,0.3976,0.3954,0.395,0.3946,0,0,0,0,0,0.4149,0.4122,0.4127,0.4122,0.4096,0.4074,0.4071,0.4073,0.4085,0.4072,0.4069,0.4078,0.4034,0.4048,0.4043,0.4025,0.3981,0.3979,0.3976,0.3956,0.3951,0.3946,0,0,0,0,0,0,0.4129,0.4121,0.4126,0.4095,0.4085,0.4077,0.406,0.4067,0.4053,0.4056,0.4059,0.4057,0.4029,0.4025,0.404,0.3992,0.401,0.4006,0.3996,0.3991,0.3987,0.3988,0.4058,0,0,0,0,0,0.4122,0.4104,0.4098,0.4071,0.4066,0.4064,0.4054,0.4057,0.4047,0.4043,0.4038,0.4028,0.4012,0.4001,0.3986,0.3954,0.3952,0.3939,0.3935,0.3931,0.3928,0.3911,0.3905,0.3966,0.3966,0.3966,0,0,0.4105,0.4098,0.4087,0.4067,0.406,0.4042,0.406,0.4041,0.4028,0.404,0.4015,0.4011,0.4,0.397,0.3957,0.3966,0.3911,0.3928,0.3925,0.3924,0.3908,0.3902,0.3897,0.3964,0.3964,0.3965,0,0,0.4066,0.4059,0.4036,0.4028,0.4017,0.4016,0.4011,0.4001,0.3999,0.3974,0.3983,0.3968,0.394,0.3932,0.3924,0.3883,0.389,0.3878,0.3855,0.3839,0.3834,0.383,0.3815,0.381,0.3874,0.3874,0.3874,0,0.4047,0.402,0.4023,0.4003,0.3994,0.4005,0.3982,0.3974,0.3958,0.3952,0.3962,0.3928,0.3921,0.389,0.388,0.3874,0.3868,0.3879,0.3834,0.383,0.3826,0.3812,0.3807,0.3873,0.3873,0.3873,0.3873,0,0.3997,0.3979,0.3962,0.3947,0.3936,0.3914,0.3914,0.3903,0.3907,0.3905,0.3879,0.3872,0.3856,0.3849,0.3852,0.3818,0.3824,0.3834,0.3851,0.3819,0.3806,0.3801,0.3871,0.3871,0.3872,0.3872,0,0,0.3945,0.3932,0.3926,0.3919,0.3908,0.3894,0.3873,0.3857,0.3847,0.3836,0.3819,0.3796,0.3805,0.3797,0.3799,0.3785,0.3753,0.3796,0.3796,0.3789,0.3715,0.3708,0.3702,0.3758,0.3757,0.3756,0.3716,0,0.3905,0.3869,0.3871,0.3837,0.382,0.383,0.3812,0.3803,0.3801,0.3787,0.3785,0.3768,0.3781,0.3776,0.3762,0.3759,0.3738,0.3762,0.3742,0.3741,0.3744,0.3695,0.3687,0.365,0.3711,0.3711,0.371,0,0.3854,0.3841,0.3805,0.3797,0.379,0.3774,0.376,0.3746,0.3736,0.3736,0.3726,0.3731,0.3711,0.3729,0.3701,0.3717,0.3709,0.3707,0.3705,0.3703,0.3723,0.3692,0.3638,0.3633,0.3702,0.3703,0.3703,0,0.3819,0.3793,0.3768,0.3763,0.3752,0.374,0.3736,0.3727,0.3718,0.3706,0.37,0.3685,0.3677,0.3666,0.3668,0.3681,0.3639,0.3657,0.3639,0.3639,0.3629,0.363,0.3574,0.3624,0.3624,0.3624,0.3624,0,0.3774,0.3752,0.3753,0.3738,0.3713,0.3716,0.3692,0.3689,0.3681,0.3666,0.3673,0.3659,0.3662,0.3647,0.3648,0.3625,0.3621,0.362,0.3621,0.362,0.362,0.3614,0.3617,0.3623,0.3623,0.3623,0.3623,0,0.3731,0.3731,0.3705,0.3697,0.3695,0.3677,0.3671,0.3656,0.3655,0.3636,0.3631,0.3629,0.3613,0.3613,0.3594,0.3595,0.3566,0.357,0.357,0.357,0.3552,0.3553,0.349,0.3482,0.3537,0.3537,0.3536,0,0.3703,0.3686,0.3676,0.3667,0.3661,0.3645,0.3636,0.3639,0.3628,0.3617,0.3604,0.3588,0.3576,0.3549,0.3546,0.3532,0.3535,0.3514,0.3533,0.3532,0.3535,0.3536,0.3534,0.351,0.3509,0.3509,0.3508,0,0.3652,0.3653,0.3639,0.3625,0.3613,0.3602,0.3592,0.3584,0.3586,0.3574,0.3557,0.3548,0.3529,0.3513,0.3499,0.3495,0.3502,0.3502,0.3497,0.3496,0.3496,0.3496,0.3559,0.3504,0.3504,0.3505,0.3505,0.3505,0.3615,0.3601,0.3592,0.3577,0.3569,0.356,0.3547,0.3544,0.353,0.3514,0.3517,0.3498,0.349,0.3473,0.3467,0.3452,0.346,0.3453,0.3451,0.3449,0.3447,0.3499,0.345,0.345,0.345,0.345,0.345,0,0.3565,0.356,0.3546,0.3532,0.3519,0.3527,0.3517,0.3506,0.349,0.3481,0.3469,0.345,0.3435,0.3431,0.3417,0.3406,0.3409,0.3402,0.3403,0.3402,0.3441,0.3447,0.34,0.34,0.34,0.34,0.34,0.34,0.3538,0.3514,0.3514,0.3487,0.3482,0.3464,0.3457,0.3449,0.3442,0.342,0.3408,0.3406,0.3399,0.3385,0.3372,0.3371,0.3365,0.3357,0.3358,0.3394,0.3399,0.3404,0.341,0.3356,0.3356,0.332,0.332,0.332]}]]